Flag for Germany Weather past 2 weeks in Heidelberg, Baden-Württemberg, Germany

54 °F


Feels Like: 49 °F
Forecast: 51 / 54 °F
Wind: 15 mph from Southwest

Location: Baden Wurttemberg - Neuostheim

Current Time: Nov 30, 2015 at 4:36:34 PM

Latest Report: Nov 30, 2015 at 3:50 PM

Visibility: N/A

Pressure: 30.12 "Hg

Humidity: 72%

Dew point: 45 °F

Location of HeidelbergLocation

Historic Weather in Heidelberg — Graph


Heidelberg temperature yesterday

Maximum temperature yesterday: 50 °F (at 7:20 PM)
Minimum temperature yesterday: 41 °F (at 7:20 AM)
Average temperature yesterday: 46 °F

Past Weeks' High & Low Weather Summary

High61 °F (Nov 18, 5:50 AM)100% (Nov 20, 3:20 PM)30.30 "Hg (Nov 20, 3:20 PM)
Low27 °F (Nov 27, 6:20 AM)51% (Nov 16, 10:20 AM)29.42 "Hg (Nov 21, 11:50 AM)
Average45 °F82%29.97 "Hg
* Reported Nov 15 3:20 PM — Nov 30 3:20 PM, Heidelberg, Weather by CustomWeather, © 2015

Note: Actual official high and low records may vary slightly from our data, if they occured in-between our weather recording intervals... More about our weather records


Heidelberg weather history for previous 24 hours

Time TempWeatherWind HumidityBarometerVisibility
3:20 PM
Mon, Nov 30
54 °FMostly cloudy.13 mph72%30.12 "HgN/A
2:50 PM52 °FMostly cloudy.14 mph77%30.12 "HgN/A
2:20 PM52 °FMostly cloudy.13 mph82%30.15 "HgN/A
1:50 PM52 °FLight rain. Mostly cloudy.14 mph82%30.15 "HgN/A
1:20 PM50 °FLight rain. Mostly cloudy.16 mph94%30.15 "HgN/A
12:50 PM50 °FLight rain. Partly sunny.13 mph94%30.18 "HgN/A
12:20 PM50 °FLight rain. Partly sunny.12 mph94%30.18 "HgN/A
11:50 AM50 °FLight rain. Mostly cloudy.10 mph94%30.18 "HgN/A
11:20 AM50 °FLight rain. Partly sunny.10 mph94%30.21 "HgN/A
10:50 AM50 °FLight rain. Overcast.8 mph88%30.21 "HgN/A
10:20 AM50 °FLight rain. Partly sunny.12 mph88%30.21 "HgN/A
9:50 AM52 °FLight rain. Partly sunny.10 mph77%30.21 "HgN/A
9:20 AM54 °FPartly sunny.13 mph72%30.18 "HgN/A
8:50 AM52 °FPartly sunny.12 mph77%30.18 "HgN/A
7:50 AM52 °FPassing clouds.10 mph77%30.15 "HgN/A
7:20 AM52 °FPassing clouds.12 mph77%30.15 "HgN/A
6:50 AM52 °FPassing clouds.12 mph77%30.12 "HgN/A
6:20 AM52 °FPassing clouds.14 mph77%30.12 "HgN/A
5:50 AM52 °FPassing clouds.12 mph77%30.12 "HgN/A
7:50 PM
Sun, Nov 29
50 °FMostly cloudy.14 mph82%30.04 "HgN/A
7:20 PM50 °FLight rain. Overcast.15 mph82%30.04 "HgN/A
6:50 PM48 °FLight rain. Mostly cloudy.13 mph87%30.04 "HgN/A
6:20 PM48 °FLight rain. Passing clouds.13 mph94%30.04 "HgN/A
5:50 PM48 °FLight rain. Passing clouds.15 mph94%30.04 "HgN/A
5:20 PM48 °FLight rain. Passing clouds.15 mph94%30.04 "HgN/A
4:50 PM48 °FLight rain. Passing clouds.15 mph94%30.01 "HgN/A
4:20 PM48 °FLight rain. Low clouds.15 mph87%30.01 "HgN/A
Weather by CustomWeather, © 2015

See weather overviewHow to use our weather pages